Location: Ford County Road and Bridge Department
(37.7686°N, 99.9762°W)
Time: 01:29:42
(UTC+00:00)

Cosmos 1656 - Pass Details

Date: 18 January 2020
Orbit: 797 x 850 km, 71.1° (Epoch: 19 February)

Event Time Altitude Azimuth Distance (km) Brightness Sun altitude
Exits shadow 11:41:48 39° 353° (N) 1,185 4.3 -25.7°
Drops below altitude 10° 11:45:24 10° 14° (NNE) 2,389 6.1 -24.9°
Sets 11:47:52 0° 19° (NNE) 3,329 6.9 -24.5°
